RH
84 98 100 100 100 99 99 98 76 53 46 42 36 32 31 32 32 32 26 30 33 36 36 36 36 36 33
87 98 100 100 100 99 99 97 81 60 47 40 37 36 37 38 36 33 29 33 37 36 37 38 37 29 26
98 98 99 99 99 99 100 99 89 73 50 43 40 40 42 41 38 33 33 34 39 41 39 35 25 20 14
100 100 99 98 99 98 99 99 99 95 62 45 47 49 44 40 37 37 37 40 41 38 37 29 19 19 18
95 98 97 99 100 100 98 99 99 95 87 48 51 47 39 38 43 46 43 46 36 36 34 27 28 38 37
100 89 98 98 97 99 100 99 99 96 60 51 50 45 38 44 48 47 46 35 34 40 41 42 40 41 40
98 96 98 98 99 90 99 99 94 93 76 50 53 44 42 50 50 44 33 30 35 42 42 44 47 49 48
100 98 94 98 98 99 98 99 98 92 74 57 55 50 48 52 46 31 28 33 43 48 49 44 42 46 37
98 98 99 90 98 99 97 98 92 86 68 62 58 50 51 44 33 36 44 46 52 56 59 56 43 45 43
96 84 98 88 100 92 98 95 91 91 72 63 61 55 49 37 41 48 48 53 59 61 63 65 62 53 48
90 93 98 94 98 98 98 98 100 93 80 71 64 56 42 40 48 52 55 64 63 65 70 71 66 58 44
100 100 98 94 98 98 98 97 98 92 86 75 69 56 36 44 54 58 62 61 66 77 82 81 74 64 58
100 97 100 100 95 97 96 100 98 95 94 82 73 52 35 44 56 62 62 67 56 67 80 73 71 71 69
98 93 96 96 96 97 96 98 97 97 99 97 80 52 36 47 57 66 67 66 39 42 57 53 50 57 54
96 97 100 98 99 100 98 97 97 98 98 97 84 42 46 60 71 70 66 58 47 43 55 52 49 38 36
96 98 98 97 95 96 96 98 96 97 97 96 94 92 94 89 83 76 73 58 48 47 38 37 35 31 32
95 97 97 95 95 96 96 96 95 97 97 96 96 95 75 88 93 78 83 55 51 53 40 35 31 29 30
Wind_Speed
34 38 38 40 36 28 27 24 26 26 25 26 24 24 24 24 25 27 27 27 25 23 21 21 19 17 17
44 49 45 39 35 31 31 26 29 27 27 25 25 25 25 25 25 26 26 26 22 22 21 19 18 16 16
49 50 48 50 41 34 35 28 28 28 27 25 25 24 26 26 24 24 24 24 22 19 18 17 17 14 13
45 48 47 46 47 44 37 36 32 27 23 25 26 25 26 27 23 24 21 21 20 17 16 16 14 11 11
51 46 46 41 39 41 44 40 33 27 21 26 26 25 25 25 23 21 20 19 18 15 14 15 13 8 8
42 53 44 43 41 42 41 36 38 22 24 24 26 25 25 24 21 21 19 18 18 15 15 15 14 13 13
47 50 48 42 37 45 32 25 23 22 24 27 25 25 24 23 21 20 19 17 17 14 14 15 16 15 15
44 43 39 42 38 36 35 33 27 27 26 28 24 24 23 20 20 20 18 17 17 16 14 13 12 11 12
43 50 45 45 38 38 32 33 24 26 27 25 21 24 22 21 20 19 18 18 17 15 13 14 11 10 9
46 50 39 44 53 49 41 37 31 30 27 25 23 23 22 21 20 19 18 18 18 16 14 14 12 10 9
43 45 50 55 41 43 43 36 33 29 27 26 24 25 22 23 22 20 18 18 18 16 13 13 13 12 9
38 41 39 42 40 35 38 31 28 30 29 28 26 26 24 25 23 20 18 17 15 13 12 13 12 12 11
36 31 31 39 40 33 39 34 35 33 31 30 28 27 27 26 24 21 18 16 15 12 10 11 11 11 10
34 33 34 33 33 34 34 34 33 37 36 33 30 29 28 28 25 23 19 16 15 14 11 9 7 9 11
32 27 27 33 31 33 33 33 37 38 39 36 32 29 28 27 26 25 22 19 16 16 15 13 10 7 8
28 24 24 31 28 25 27 28 31 34 40 36 35 34 31 30 29 28 25 21 19 17 17 15 11 10 10
29 29 28 28 24 24 24 25 28 27 35 38 38 35 32 31 30 30 27 23 20 18 16 14 12 10 10
Wind_Direction
267 287 273 276 252 254 261 265 274 278 277 274 276 279 279 283 287 291 290 290 294 293 292 293 287 287 288
267 276 278 257 255 256 256 258 269 273 272 272 275 279 282 282 286 287 287 289 290 288 289 287 284 286 292
274 274 276 269 258 248 248 250 259 264 269 274 275 277 281 281 279 281 284 285 283 283 283 280 281 289 293
279 272 272 273 264 253 247 250 245 253 269 275 277 279 281 281 279 276 278 275 274 273 277 277 279 286 288
272 268 275 286 274 270 261 263 252 249 260 268 273 278 280 277 274 274 270 264 263 266 272 271 272 267 271
268 269 271 269 276 271 261 266 261 248 253 263 270 276 274 272 268 264 257 253 258 266 269 268 267 269 270
266 268 260 274 265 265 267 259 242 249 248 259 264 269 271 265 261 253 247 246 257 264 265 266 263 269 271
263 261 259 260 251 244 250 243 245 247 248 258 264 267 260 255 253 249 243 246 254 261 258 262 260 269 274
264 256 261 257 246 246 258 246 241 247 247 253 260 260 255 248 237 235 244 257 255 247 250 253 255 261 278
263 256 248 256 257 257 250 242 241 243 246 252 251 249 243 238 231 235 246 252 247 248 251 250 248 247 263
266 259 262 258 245 244 236 237 231 244 242 248 246 244 236 232 229 232 242 243 248 248 244 240 235 234 233
261 262 263 260 255 252 244 240 232 237 241 244 243 239 232 227 224 230 233 238 244 240 230 227 226 227 223
268 266 277 265 265 253 254 247 246 241 238 240 235 231 229 225 223 223 226 233 231 226 222 220 222 223 218
270 267 267 260 253 255 253 253 243 238 230 233 230 225 222 218 218 216 219 220 221 219 219 202 205 225 228
270 273 275 268 251 253 251 249 246 243 232 228 223 215 213 214 215 214 215 216 219 219 220 224 232 244 245
268 261 265 264 248 242 245 244 245 243 237 222 213 210 208 212 213 213 218 220 222 227 231 236 242 243 242
257 260 259 262 256 249 245 241 242 243 239 223 217 206 208 211 214 214 218 221 223 229 233 235 243 250 250